Location: ??????????
(41.2581°N, 22.8006°E)
Time: 00:41:31
(UTC+00:00)

CORIOLIS - Pass Details

Date: 13 December 2025
Orbit: 816 x 835 km, 98.7° (Epoch: 17 January)

Event Time Altitude Azimuth Distance (km) Brightness Sun altitude
Rises 15:52:43 0° 166° (SSE) 3,328 7.4 -9.7°
Reaches altitude 10° 15:55:03 10° 167° (SSE) 2,400 6.7 -10.1°
Maximum altitude 16:00:22 85° 256° (WSW) 825 4.2 -11.0°
Drops below altitude 10° 16:05:45 10° 345° (NNW) 2,420 6.5 -12.0°
Sets 16:08:06 0° 346° (NNW) 3,358 7.3 -12.4°
